Regional Weather Roundup
Issued by NWS State College, PA

Home | Current Version | Previous Version | Text Only | Print | Product List | Glossary On
Versions: 1 2 3 4 5 6 7 8 9 10 11 12 13 14 15 16 17 18 19 20 21 22 23 24 25 26 27 28 29 30 31 32 33 34 35 36 37 38 39 40 41 42 43 44 45 46 47 48 49 50
000
ASUS41 KCTP 202310
RWRCTP

REGIONAL WEATHER ROUNDUP
NATIONAL WEATHER SERVICE STATE COLLEGE PA
700 PM EDT SUN AUG 20 2017

Note: "fair" indicates few or no clouds below 12,000 feet with no
significant weather and/or obstructions to visibility.

* = STATION THAT DOES NOT REPORT PRECIPITATION /E.G. RAIN...SNOW...ETC/
    THUNDER OR FOG.

PAZ002>004-007>009-013>016-020>023-029>032-210000-
WESTERN PENNSYLVANIA

CITY           SKY/WX    TMP DP  RH WIND       PRES   REMARKS
ERIE           SUNNY     78  64  61 N5        30.10S
MEADVILLE      SUNNY     78  57  48 MISG      30.14R
FRANKLIN*      SUNNY     77  55  47 S6        30.15R
NEW CASTLE     FAIR      83  62  49 S3        30.13R
BEAVER COUNTY  NOT AVBL
BUTLER*        SUNNY     79  61  53 SE3       30.14R
PITTSBURGH INT MOSUNNY   81  60  48 CALM      30.12S
PITTSBURGH     SUNNY     80  58  46 S5        30.12S
INDIANA*       SUNNY     79  59  50 CALM      30.17S
LATROBE        SUNNY     81  57  44 W6        30.13F
WASHINGTON CO* SUNNY     79  64  61 CALM      30.13R
$$

PAZ004>006-010>012-017>019-024>028-033>037-041-042-045-046-049>053-210000-
CENTRAL PENNSYLVANIA

CITY           SKY/WX    TMP DP  RH WIND       PRES   REMARKS
BRADFORD       SUNNY     76  56  49 W5        30.16S
DUBOIS         SUNNY     76  55  48 SW5       30.15S
CLEARFIELD     SUNNY     79  57  46 SW5       30.15S
JOHNSTOWN      SUNNY     77  54  44 N5        30.18S
ALTOONA        SUNNY     76  65  68 S3        30.16S
STATE COLLEGE  SUNNY     75  63  64 SW6       30.14S
WILLIAMSPORT   CLEAR     81  64  56 SW7       30.08R
SELINSGROVE    CLEAR     78  65  63 S5        30.11R
FT INDIANTOWN  CLEAR     79  65  62 CALM      30.11S
CAPITAL CITY   PTCLDY    82  60  47 VRB3      30.11S
HARRISBURG     PTCLDY    78  70  76 S3        30.10S
YORK           CLEAR     81  62  52 CALM      30.12S
$$

PAZ038>040-043-044-047-048-054-055-060>062-067>071-210000-
EASTERN PENNSYLVANIA

CITY           SKY/WX    TMP DP  RH WIND       PRES   REMARKS
SCRANTON       CLEAR     78  61  55 SW3       30.12R
MOUNT POCONO     N/A     72  58  61 NW6       30.17R
ALLENTOWN      CLEAR     79  63  57 SW7       30.10S
QUAKERTOWN*    CLEAR     79  63  57 CALM      30.12S
READING        CLEAR     80  64  58 SW5       30.10S
LANCASTER      CLEAR     81  62  52 W5        30.12S
COATESVILLE    CLEAR     77  64  65 CALM      30.14S
POTTSTOWN      CLEAR     79  61  53 CALM      30.13R
BLUE BELL      CLEAR     77  63  61 CALM      30.13R
DOYLESTOWN     CLEAR     79  62  56 CALM      30.11R
WILLOW GROVE   NOT AVBL
NORTH PHILA    CLEAR     82  61  48 W6        30.12R
PHILADELPHIA   PTCLDY    83  58  42 N9        30.11R
$$




USA.gov is the U.S. government's official web portal to all federal, state and local government web resources and services.